Location: Llangadwaladr
(53.2000°N, 4.4167°W)
Time: 06:27:39
(UTC+00:00)

Daily predictions for brighter satellites

Satellite Brightness Start Highest point End
(mag) Time Altitude Azimuth Time Altitude Azimuth Time Altitude Azimuth
SL-14 R/B 3.8 18:25:29 10° N 18:29:13 39° ENE 18:32:58 10° SE
Cosmos 2263 Rocket 2.4 18:24:40 10° NNW 18:30:18 57° NE 18:35:55 10° SE
Cosmos 1674 Rocket 4.1 18:29:31 10° N 18:33:40 39° ENE 18:37:49 10° SE
Cosmos 2360 4.3 18:29:35 10° SSW 18:35:11 59° ESE 18:40:49 10° NE
Cosmos 1805 3.9 18:32:10 10° SSE 18:35:41 34° E 18:39:13 10° NNE
SKYMED 2 3.5 18:32:42 10° NNE 18:37:05 76° ESE 18:41:26 10° S
YAOGAN 1 2.6 18:33:14 10° SSE 18:37:28 59° ENE 18:41:45 10° N
Cosmos 1726 3.2 18:36:29 10° SE 18:39:25 23° E 18:42:22 10° NE
COBE Rocket 3.8 18:34:57 10° SSE 18:39:47 68° ENE 18:44:31 10° N
OBJECT-B 2.0 18:39:06 10° ESE 18:40:49 16° ENE 18:42:33 10° NNE
DMSP B5D2-2 4.1 18:35:37 10° NNE 18:40:57 79° ESE 18:46:14 10° SSW
H-2A R/B 4.4 18:39:59 10° ENE 18:41:32 12° NE 18:43:04 10° NNE
Cosmos 2082 3.9 18:36:03 10° NNW 18:41:49 83° WSW 18:47:34 10° SSE
Cosmos 1674 3.4 18:38:41 10° NNW 18:42:25 59° W 18:46:04 10° S
Cosmos 676 Rocket 3.9 18:38:14 10° SSW 18:43:24 77° ESE 18:48:36 10° NNE
USA 267 4.5 18:41:49 10° SSE 18:47:54 40° SW 18:54:00 10° WNW
Cosmos 2084 Rocket 4.3 18:45:46 10° NW 18:49:10 30° NNE 18:52:17 12° E
Cosmos 1766 4.3 18:46:27 10° SE 18:49:42 25° E 18:52:58 10° NNE
Cosmos 1697 Rocket 2.7 18:47:25 10° SSW 18:53:01 78° ESE 18:58:41 10° NNE
Cosmos 1869 Rocket 4.3 18:49:07 10° SSW 18:53:32 58° WNW 18:57:59 10° N
Cosmos 2279 Rocket 4.1 18:48:50 10° N 18:55:07 87° W 19:01:24 10° S
Cosmos 2221 Rocket 3.6 18:51:43 10° N 18:56:15 81° E 19:00:47 10° SSE
Cosmos 1975 Rocket 4.4 18:54:58 10° NNE 18:58:23 21° ENE 19:00:50 14° ESE
ASTEX 1 3.5 18:54:15 10° N 18:59:15 90° WNW 19:04:16 10° S
Cosmos 2180 Rocket 4.5 18:54:18 10° N 19:00:34 82° E 19:06:53 10° SSE
Cosmos 1378 Rocket 3.5 18:58:33 10° N 19:02:59 71° ENE 19:07:19 10° SSE
IGS 5A 4.2 18:59:50 10° SE 19:03:34 33° ENE 19:07:19 10° N
Aureole 1 4.2 19:01:19 10° SSW 19:04:21 71° ESE 19:07:54 10° NNE
Resurs 01 Rocket 3.2 19:05:25 15° E 19:07:13 18° ENE 19:10:16 10° NNE
Cosmos 1733 3.0 19:05:58 10° S 19:09:43 83° E 19:13:29 10° NNE
ATLAS 2AS CENTAUR R/B 3.9 19:06:37 10° W 19:13:40 40° NNW 19:20:23 10° NE
Cosmos 2227 Rocket 4.4 19:09:50 10° NW 19:14:27 26° WSW 19:19:04 10° SSW
Cosmos 1470 3.9 19:15:56 20° ESE 19:16:35 21° E 19:19:33 10° NE
Cosmos 1733 Rocket 3.1 19:12:31 10° S 19:16:57 87° WNW 19:21:27 10° N
Meteor 2-14 Rocket 4.4 19:12:58 10° S 19:18:58 68° E 19:25:00 10° NNE
ISS -2.4 19:17:37 10° W 19:20:38 31° SSW 19:22:45 16° SSE
Cosmos 2084 3.1 19:18:38 10° SW 19:22:25 65° SE 19:25:47 13° NE
Cosmos 841 Rocket 4.1 19:18:23 10° NNW 19:23:29 57° WSW 19:28:30 10° S
CZ-4B R/B 4.0 19:19:17 10° S 19:24:31 54° W 19:29:55 10° NNW
COSMO-SKYMED 1 4.0 19:20:58 10° N 19:25:05 41° WNW 19:29:09 10° SW
Cosmos 2322 Rocket 4.0 19:27:51 13° ENE 19:27:51 13° ENE 19:28:52 10° ENE
Ariane Rocket 4.4 19:25:15 18° E 19:26:55 21° NE 19:30:41 10° N
CSL-04 Rocket 3.7 19:22:05 10° SSE 19:27:20 63° ENE 19:32:42 10° N
Okean-O 2.8 19:24:10 14° SE 19:27:50 54° ENE 19:32:10 10° N
Cosmos 1850 Rocket 3.9 19:23:13 10° SSW 19:28:26 75° ESE 19:33:43 10° NNE
Resurs 1-3 3.9 19:26:17 19° SE 19:29:06 45° ENE 19:33:18 10° N
CZ-4 R/B 2.0 19:25:00 10° S 19:29:08 62° WSW 19:33:19 10° NNW
Feng Yun 1-1 Rocket 4.4 19:24:26 10° S 19:29:57 74° WSW 19:35:23 10° NNW
Cosmos 1570 Rocket 4.0 19:25:27 10° NNW 19:30:44 69° ENE 19:34:49 17° SE
SJ-6B 2.6 19:30:23 17° SSE 19:33:11 65° ENE 19:36:56 10° N
Cosmos 1980 Rocket 2.1 19:27:37 10° SSW 19:33:16 81° ESE 19:38:54 10° NNE
Meteor 1-12 Rocket 4.4 19:30:02 10° S 19:35:56 63° E 19:41:53 10° NNE
Meteor 2-21 Rocket 4.4 19:30:14 10° S 19:36:13 65° E 19:42:13 10° NNE
DMSP B5D1-3 4.5 19:33:59 10° NNE 19:39:07 89° WNW 19:44:15 10° SSW
Cosmos 2369 3.7 19:35:34 10° SSW 19:41:18 86° WNW 19:47:04 10° NNE
USA 186 1.7 19:40:04 20° SSE 19:42:12 89° ENE 19:45:35 10° NNW
deb Chang Zheng 4 3.8 19:41:19 32° ESE 19:42:40 43° ENE 19:46:37 10° N
Cosmos 489 Rocket 4.5 19:40:16 10° S 19:46:31 63° ESE 19:52:45 10° NNE
Meteor 1-24 Rocket 3.5 19:42:13 10° N 19:47:32 69° ENE 19:51:25 19° SSE
Cosmos 2278 3.6 19:43:01 10° SSW 19:48:38 64° ESE 19:54:16 10° NE
Meteor 2-10 4.5 19:43:14 10° SSW 19:48:52 71° WNW 19:54:22 10° N
NOSS 7 (E) 4.5 19:47:20 10° NW 19:50:27 73° SW 19:51:36 40° SSE
Cosmos 1437 Rocket 2.6 19:46:47 10° S 19:50:28 56° E 19:54:09 10° NNE
SL-4 R/B 2.9 19:47:15 10° W 19:51:35 47° SSW 19:53:27 30° SSE
SL-16 R/B 2.6 19:46:56 10° S 19:52:03 36° ESE 19:57:12 10° NE
USA 215 3.4 19:47:18 15° ENE 19:52:51 72° NNW 19:59:21 10° W
Meteor 2-16 Rocket 4.3 19:47:10 10° S 19:53:16 74° E 19:59:26 10° NNE
Cosmos 2208 Rocket 4.0 19:48:44 10° NNW 19:54:07 83° ENE 19:57:22 25° SSE
MINOTAUR IV R/B 4.5 19:50:29 10° SSW 19:54:59 70° ESE 19:59:31 10° NNE
Cosmos 1844 Rocket 2.8 19:51:16 10° NNW 19:56:54 59° NE 19:59:17 34° ESE
Cosmos 1741 Rocket 4.2 19:52:10 10° SSW 19:57:28 73° WNW 20:02:45 10° NNE
Cosmos 2285 Rocket 4.3 19:53:23 10° NNW 19:59:41 67° WSW 20:05:46 11° S
Okean O Rocket 3.5 19:56:19 10° SSW 20:00:08 30° W 20:04:01 10° NNW
USA 81 4.0 19:55:09 10° N 20:00:27 71° E 20:03:45 23° SSE
Cosmos 2278 Rocket 3.9 19:56:43 10° NNW 20:00:51 20° NNE 20:03:03 16° ENE
Landsat 5 3.5 19:56:35 10° NNE 20:01:07 79° ESE 20:05:36 10° SSW
Cosmos 1908 Rocket 3.5 19:56:56 10° SSW 20:01:17 85° W 20:05:39 10° N
Meteor 1-22 Rocket 4.1 19:56:34 10° S 20:01:52 62° E 20:07:25 10° NNE
Cosmos 2026 Rocket 3.9 19:58:16 10° S 20:04:13 61° E 20:10:12 10° NNE
Cosmos 1553 Rocket 4.1 20:00:44 10° N 20:06:58 56° ENE 20:09:43 33° SE
Cosmos 1300 Rocket 4.5 20:08:30 31° NE 20:08:30 31° NE 20:11:19 10° NNE
Cosmos 1782 Rocket 3.4 20:06:54 31° S 20:08:53 66° E 20:13:14 10° NNE
Cosmos 1943 Rocket 4.4 20:07:36 10° NNW 20:10:26 14° NNE 20:13:15 10° NE
OBJECT-B 2.5 20:09:47 20° SW 20:10:44 25° W 20:12:57 10° NW
MOS 1 4.3 20:08:42 36° SE 20:10:55 62° ENE 20:16:32 10° NNW
Nadezhda 4 Rocket 4.3 20:04:52 10° SSW 20:11:10 70° WNW 20:17:31 10° N
Cosmos 2292 Rocket 3.7 20:06:06 10° S 20:11:35 83° W 20:15:42 10° N
Cosmos 2263 Rocket 3.7 20:08:58 10° NW 20:14:00 33° WSW 20:19:02 10° S
Cosmos 1726 3.8 20:10:49 10° SW 20:14:10 34° WNW 20:17:33 10° N
H-2A R/B 2.2 20:15:56 69° SE 20:16:18 78° ENE 20:20:12 10° NNW
USA 281 3.9 20:16:21 31° E 20:18:29 39° NE 20:24:28 10° NNW
Cosmos 1844 3.6 20:12:59 10° NNW 20:18:34 69° NE 20:20:06 47° ESE
Meteor 2-5 Rocket 4.0 20:13:40 10° NNW 20:19:11 64° W 20:23:46 15° S
MetOp-A 3.1 20:21:56 76° S 20:22:13 88° WSW 20:26:10 10° NNW
Meteor 1-15 Rocket 4.3 20:16:51 10° SSW 20:22:25 74° WNW 20:28:01 10° N
Cosmos 773 Rocket 4.4 20:18:54 10° NNW 20:23:58 44° NE 20:24:31 42° ENE
Cosmos 1025 Rocket 3.1 20:22:48 10° NNW 20:27:06 73° W 20:28:10 49° SSW
Cosmos 2084 Rocket 3.3 20:25:01 10° NW 20:28:44 69° WSW 20:28:44 69° WSW
MetOp-B 4.2 20:31:47 54° E 20:32:23 58° ENE 20:37:39 10° N
SPOT 1/Viking Rocket 3.4 20:32:06 54° SSE 20:33:19 85° ENE 20:38:31 10° NNW
Cosmos 1536 Rocket 4.3 20:30:15 10° N 20:33:26 38° NE 20:33:26 38° NE
Spot 2 3.9 20:34:50 81° SSW 20:34:59 84° WSW 20:39:18 10° NNW
Cosmos 1975 Rocket 3.6 20:32:16 10° NNW 20:36:38 57° W 20:37:59 39° SSW
SPOT 3 Rocket 3.9 20:37:48 46° ENE 20:37:48 46° ENE 20:42:35 10° N
SeaSat 1 4.5 20:38:34 15° NE 20:39:35 16° NNE 20:42:32 10° N
Cosmos 2360 Rocket 4.2 20:46:44 14° NE 20:46:44 14° NE 20:47:31 10° NE
Resurs 01 Rocket 1.6 20:42:59 74° SW 20:43:13 77° WSW 20:47:40 10° NNW
Cosmos 1092 Rocket 4.4 20:42:02 10° SSW 20:48:18 65° WNW 20:54:34 10° N
Cosmos 968 Rocket 3.7 20:46:46 10° SW 20:52:01 70° WNW 20:57:16 10° NNE
Cosmos 1470 3.9 20:51:05 31° WSW 20:52:17 40° WNW 20:55:58 10° N
CARTOSAT-1 4.1 20:54:09 53° N 20:54:09 53° N 20:57:31 10° NNW
Cosmos 2237 4.4 20:52:02 10° SSW 20:58:53 57° NE 21:03:26 10° NE
Cosmos 158 Rocket 4.4 20:53:01 10° NNW 20:57:03 48° NNE 20:57:03 48° NNE
IRS-1A Rocket 4.4 20:57:16 53° S 20:58:35 73° WSW 21:04:23 10° NNW
Cosmos 1655 Rocket 4.5 21:03:22 45° ENE 21:03:22 45° ENE 21:08:18 10° NNE
Ariane Rocket 3.0 21:05:27 81° W 21:05:27 81° W 21:10:29 10° NNW
Terra 3.0 21:07:09 32° NNE 21:07:09 32° NNE 21:10:09 10° N
ATLAS 2AS CENTAUR R/B 3.7 20:59:24 10° NW 21:06:18 40° NNE 21:09:00 29° ENE
ERS-1 Rocket 3.7 21:07:50 43° NNE 21:07:50 43° NNE 21:11:37 10° N
Cosmos 2322 Rocket 2.4 21:09:30 59° NE 21:09:30 59° NE 21:14:07 10° NNE
Gbstr 26 Del rocket 4.4 21:07:55 10° WSW 21:15:52 75° SSE 21:17:10 64° ESE
S3M 3.9 21:09:43 10° NNW 21:16:03 83° W 21:16:36 75° SSW
NOSS 3-4 (A) 3.7 21:11:01 10° NW 21:17:40 73° NE 21:18:30 66° E
NOSS 3-4 (C) 3.7 21:11:07 10° NW 21:17:46 72° NE 21:18:36 66° E
Cosmos 1980 Rocket 4.1 21:13:04 10° W 21:17:54 28° NW 21:22:45 10° NNE
SPOT 5 3.6 21:20:43 47° N 21:20:43 47° N 21:24:10 10° NNW
Cosmos 2266 Rocket 4.1 21:21:36 65° NE 21:21:36 65° NE 21:27:14 10° NNE
H-2A R/B 4.5 21:24:48 10° NNE 21:25:28 14° NNE 21:25:28 14° NNE
Spot 2 Rocket 4.2 21:30:30 50° N 21:30:30 50° N 21:34:14 10° NNW
USA 215 3.4 21:34:38 59° NE 21:35:37 67° N 21:42:07 10° WNW
SL-16 R/B 2.9 21:30:29 10° SW 21:36:01 52° NW 21:41:36 10° NNE
Cosmos 1844 Rocket 4.0 21:35:34 10° NW 21:40:32 32° WSW 21:40:57 31° WSW
Cosmos 2278 Rocket 2.9 21:40:33 10° NNW 21:44:53 47° N 21:44:53 47° N
Cosmos 1943 Rocket 3.6 21:51:10 10° NNW 21:54:57 29° NNE 21:54:57 29° NNE
Cosmos 2369 Rocket 4.1 21:55:32 10° NNW 21:59:43 20° NNE 22:00:00 20° NNE
ADEOS Rocket 4.2 22:04:13 30° NNE 22:04:13 30° NNE 22:07:35 10° N
USA 281 3.4 22:03:14 64° W 22:03:14 64° W 22:09:16 10° NNW
Cosmos 2333 Rocket 4.2 22:08:01 20° NNE 22:08:01 20° NNE 22:09:39 10° NNE
Cosmos 2219 Rocket 4.4 22:10:23 15° NE 22:10:23 15° NE 22:11:21 10° NE
SeaSat 1 4.2 22:18:19 28° N 22:18:19 28° N 22:20:52 10° NNW
Resurs 01 Rocket 4.5 22:20:32 11° W 22:20:32 11° W 22:21:55 10° WNW
Cosmos 2360 Rocket 3.7 22:28:27 31° N 22:28:27 31° N 22:31:41 10° NNE
Terra 4.2 22:46:03 20° NW 22:46:03 20° NW 22:47:50 10° NNW
Cosmos 2322 Rocket 4.0 22:51:08 23° WNW 22:53:07 28° NW 22:58:00 10° NNE
ATLAS 2AS CENTAUR R/B 3.4 22:51:01 10° NW 22:56:23 51° NNW 22:56:23 51° NNW
Cosmos 2278 Rocket 4.4 23:25:01 10° NW 23:26:42 18° WNW 23:26:42 18° WNW
Cosmos 1943 Rocket 4.3 23:34:46 10° NW 23:36:27 20° NW 23:36:27 20° NW
Cosmos 2369 Rocket 4.1 23:39:19 10° NNW 23:41:46 26° NNW 23:41:46 26° NNW
Cosmos 2333 Rocket 4.1 23:50:00 25° NNW 23:50:00 25° NNW 23:53:46 10° NNE
Cosmos 2219 Rocket 4.2 23:52:05 25° N 23:52:05 25° N 23:55:10 10° NNE
